TimeEDT,TemperatureF,Dew PointF,Humidity,Sea Level PressureIn,VisibilityMPH,Wind Direction,Wind SpeedMPH,Gust SpeedMPH,PrecipitationIn,Events,Conditions,WindDirDegrees,DateUTC
12:57 AM,53.1,46.0,77,30.40,10.0,NE,5.8,-,N/A,,Clear,40,2013-04-27 04:57:00
1:57 AM,53.1,46.9,80,30.37,10.0,ENE,5.8,-,N/A,,Clear,60,2013-04-27 05:57:00
2:57 AM,53.1,46.9,80,30.37,10.0,North,3.5,-,N/A,,Clear,10,2013-04-27 06:57:00
3:57 AM,54.0,48.0,80,30.38,10.0,NNE,5.8,-,N/A,,Clear,30,2013-04-27 07:57:00
4:57 AM,54.0,48.0,80,30.37,10.0,NE,4.6,-,N/A,,Clear,40,2013-04-27 08:57:00
5:57 AM,55.0,48.9,80,30.36,10.0,NNE,5.8,-,N/A,,Clear,30,2013-04-27 09:57:00
6:57 AM,55.0,50.0,83,30.37,10.0,NNE,5.8,-,N/A,,Clear,30,2013-04-27 10:57:00
7:57 AM,57.0,51.1,81,30.39,10.0,NNE,4.6,-,N/A,,Clear,30,2013-04-27 11:57:00
8:57 AM,61.0,51.1,70,30.40,10.0,Variable,5.8,-,N/A,,Overcast,0,2013-04-27 12:57:00
9:57 AM,66.0,46.0,48,30.39,10.0,NE,4.6,-,N/A,,Clear,40,2013-04-27 13:57:00
10:57 AM,68.0,42.1,39,30.40,10.0,ESE,10.4,-,N/A,,Clear,110,2013-04-27 14:57:00
11:57 AM,69.1,44.1,40,30.38,10.0,ESE,11.5,-,N/A,,Clear,120,2013-04-27 15:57:00
12:57 PM,69.1,50.0,51,30.36,10.0,SE,11.5,-,N/A,,Clear,130,2013-04-27 16:57:00
1:57 PM,70.0,48.0,46,30.35,10.0,SE,12.7,-,N/A,,Clear,140,2013-04-27 17:57:00
2:57 PM,69.1,43.0,39,30.35,10.0,ESE,16.1,-,N/A,,Clear,120,2013-04-27 18:57:00
3:57 PM,69.1,45.0,42,30.33,10.0,ESE,13.8,-,N/A,,Clear,110,2013-04-27 19:57:00
4:57 PM,68.0,43.0,40,30.33,10.0,ESE,13.8,-,N/A,,Clear,110,2013-04-27 20:57:00
5:57 PM,66.0,44.1,45,30.33,10.0,ESE,11.5,19.6,N/A,,Clear,110,2013-04-27 21:57:00
6:57 PM,64.9,46.0,50,30.32,10.0,East,6.9,-,N/A,,Clear,90,2013-04-27 22:57:00
7:57 PM,62.1,46.0,56,30.33,10.0,East,8.1,-,N/A,,Clear,90,2013-04-27 23:57:00
8:57 PM,60.1,46.0,60,30.33,10.0,East,8.1,-,N/A,,Clear,80,2013-04-28 00:57:00
9:57 PM,60.1,45.0,57,30.33,10.0,East,11.5,-,N/A,,Clear,90,2013-04-28 01:57:00
10:57 PM,57.9,45.0,62,30.33,10.0,ENE,5.8,-,N/A,,Clear,70,2013-04-28 02:57:00
11:57 PM,57.0,43.0,59,30.32,10.0,ENE,4.6,-,N/A,,Clear,70,2013-04-28 03:57:00